Theta_e
304 304 305 308 309 311 308 304 295 313 317 299 300 295 296 299 298 302 300 300 297 296 295 292 291 291 296 300 299 293 297 293 284 285 291 292 292 290 290 283 281 284 282 286
305 304 304 306 308 309 305 298 299 312 313 294 295 297 297 299 298 299 299 298 299 300 296 292 294 295 299 300 297 294 296 290 283 284 287 288 287 289 292 291 286 285 281 285
304 304 304 305 307 309 305 297 292 299 304 303 298 295 294 294 300 299 301 300 300 297 296 298 293 294 297 298 298 299 299 292 288 286 288 290 284 287 289 290 284 284 287 289
304 304 304 304 305 308 303 297 293 298 292 295 297 298 296 293 293 298 300 297 298 297 293 294 294 295 293 294 297 297 296 289 291 292 294 292 287 286 288 287 289 286 288 289
303 304 304 305 305 307 299 292 292 295 294 297 295 295 292 293 295 296 294 294 297 297 294 295 293 296 295 292 291 291 293 287 290 288 291 291 289 291 289 288 289 290 290 289
301 302 304 304 306 306 297 299 297 295 292 292 291 289 292 293 296 297 299 298 296 295 298 301 302 301 300 297 292 288 289 287 286 285 288 288 284 289 291 291 290 290 286 291
300 300 302 304 305 305 300 300 296 290 286 290 290 293 293 292 293 291 295 297 297 301 299 299 295 291 292 296 296 294 288 287 287 285 286 279 287 294 294 292 294 293 292 287
299 298 300 301 303 305 301 300 295 289 284 289 290 291 292 294 294 292 292 292 290 293 294 290 287 285 288 288 287 291 294 288 286 283 284 287 288 282 286 287 289 295 293 292
298 298 297 299 301 304 302 299 300 292 285 285 290 290 292 289 289 286 286 286 287 292 286 285 283 284 285 282 281 284 286 291 287 283 282 280 280 281 286 290 284 290 293 293
297 298 298 297 299 302 301 298 300 294 285 289 290 287 288 292 291 287 285 285 286 287 284 283 283 283 284 280 280 277 282 284 282 284 282 283 281 279 285 282 282 280 284 286
296 297 297 297 297 300 299 297 299 295 288 289 290 291 288 287 287 287 285 285 284 283 283 284 284 284 282 282 282 280 281 280 280 283 281 280 281 281 283 283 281 283 284 285
296 296 297 297 297 298 300 293 298 297 290 289 289 290 292 292 291 287 285 285 285 287 285 284 285 281 281 283 280 281 281 285 283 285 283 281 281 281 283 283 283 284 286 285
295 295 296 297 298 298 298 294 293 292 285 287 283 283 288 291 291 293 285 285 287 286 287 286 285 281 282 280 281 278 280 282 282 282 281 280 282 284 283 281 281 282 284 284
294 295 295 296 297 298 298 294 294 292 287 283 280 286 284 288 290 290 290 289 287 286 286 285 283 282 282 279 280 281 280 282 280 276 278 281 283 283 284 285 281 280 281 281
294 294 295 295 296 298 297 295 296 295 289 282 279 280 283 286 288 288 290 288 286 285 283 283 281 281 280 278 279 278 279 280 280 279 281 283 284 286 286 285 282 280 280 279
293 294 294 295 295 297 293 285 293 297 295 284 275 282 282 281 285 287 287 286 285 285 284 281 281 281 281 278 274 280 280 281 284 281 282 285 284 286 285 282 281 281 280 280
293 294 294 295 295 294 287 285 291 297 294 284 277 277 281 281 281 279 281 283 283 284 282 281 279 278 281 278 273 280 280 280 280 281 281 278 279 280 282 282 281 280 278 279
293 293 294 294 295 294 289 294 296 296 287 285 279 272 277 281 278 274 280 278 279 279 279 278 277 278 279 274 280 279 279 280 279 280 279 279 279 278 278 278 277 275 276 275
292 293 293 291 289 285 286 296 296 295 288 281 277 271 273 282 281 278 276 280 274 278 273 276 276 272 271 276 278 277 276 277 278 277 276 275 276 276 275 274 273 274 274 273
292 289 284 281 286 294 295 290 285 284 284 284 276 274 273 281 279 276 274 274 270 265 272 277 269 268 273 270 270 269 269 269 271 273 273 272 272 274 274 273 274 274 274 272
286 282 281 285 295 289 284 281 280 280 278 281 277 274 275 281 274 274 278 269 270 268 268 268 263 264 269 266 265 266 265 265 265 266 269 271 271 273 274 273 272 271 270 269
285 285 288 286 283 282 279 278 279 278 274 275 271 273 275 276 280 272 272 269 272 265 270 266 263 266 261 260 260 260 260 259 260 262 263 265 266 264 266 265 264 263 263 263
287 283 281 276 278 274 273 271 272 272 273 276 277 273 275 275 279 273 275 267 267 274 266 264 261 261 258 256 256 256 256 256 257 258 260 260 259 258 257 258 258 258 258 257
280 275 273 274 272 271 268 272 274 277 275 276 277 276 277 275 272 275 271 273 272 267 261 262 256 255 252 254 254 251 252 252 254 255 256 256 256 255 254 254 255 255 255 254
277 272 270 272 268 267 263 266 269 273 280 280 276 276 278 275 274 274 271 268 268 267 262 256 255 254 253 252 252 250 250 251 252 253 253 254 254 253 252 252 252 253 254 253
268 260 264 266 268 268 269 272 273 275 279 277 277 275 273 272 272 270 269 268 264 256 252 255 256 253 252 249 249 249 250 251 252 252 252 252 252 251 249 251 253 252 253 253
265 261 262 263 264 262 262 264 264 268 278 274 276 272 270 274 268 261 256 253 254 256 255 255 255 254 253 250 249 249 249 250 250 248 250 249 249 250 253 252 251 253 253 254
Wind_Speed
14 15 14 13 13 8 6 3 6 5 13 12 4 16 27 13 15 10 17 12 25 19 18 15 16 15 8 16 17 21 11 1 6 10 4 0 5 8 10 6 6 8 2 22
15 13 15 14 13 9 2 4 6 4 11 13 15 6 25 24 17 18 14 16 17 16 18 19 20 11 7 14 18 19 13 6 1 5 2 2 7 9 16 13 2 21 6 15
21 15 15 16 15 13 3 3 5 6 8 7 15 20 23 22 21 23 26 17 15 8 14 20 7 15 6 16 15 10 14 6 12 18 7 9 8 12 18 19 13 6 28 17
20 18 17 17 15 15 4 5 6 3 5 13 19 17 9 22 18 28 22 21 20 20 11 20 25 10 2 5 7 10 13 12 12 21 18 6 6 10 20 25 28 17 26 25
19 19 19 17 16 16 4 3 5 2 5 11 9 13 11 15 19 15 29 25 28 28 23 24 18 14 16 8 5 8 1 9 12 23 12 15 20 15 18 23 24 28 29 36
22 16 20 21 18 14 4 3 1 1 4 6 6 5 4 5 12 20 27 29 26 28 36 30 23 10 7 6 13 10 7 4 6 21 8 13 12 37 23 24 26 23 28 36
18 16 21 22 19 17 4 2 3 3 12 9 9 11 16 18 15 6 3 9 17 22 6 3 5 6 0 7 10 13 12 14 8 11 6 14 13 10 27 29 30 25 28 5
18 14 21 17 19 20 8 3 3 4 4 7 10 15 12 9 8 4 5 4 2 7 4 6 3 2 5 5 1 13 16 13 8 8 13 14 15 6 10 14 27 23 25 14
18 17 14 18 21 18 9 5 3 3 3 9 6 6 15 14 10 3 3 1 3 3 3 1 7 9 5 7 4 2 2 17 14 5 8 12 3 4 1 8 18 12 18 17
18 20 17 12 21 19 9 3 7 3 4 4 5 5 4 2 6 3 4 6 2 1 4 5 4 3 1 6 8 6 4 5 15 15 8 5 5 6 2 7 8 2 1 7
21 20 20 14 17 22 9 2 8 4 4 2 6 5 5 1 1 6 6 4 1 2 5 5 4 3 4 3 4 6 7 8 5 5 5 9 6 3 10 4 3 1 4 5
20 21 19 19 20 20 15 3 4 3 3 0 0 2 1 2 4 3 4 1 4 6 5 4 3 3 3 5 4 2 5 7 6 7 4 1 1 1 2 1 4 3 5 4
18 21 21 21 18 20 15 3 4 3 1 2 1 5 4 2 3 1 4 1 1 2 2 2 3 3 2 6 6 3 3 1 2 4 2 2 2 3 4 2 3 3 4 5
19 20 20 22 17 23 18 5 5 5 3 3 3 1 4 2 3 2 2 3 4 3 2 1 2 3 1 2 1 2 3 7 5 2 2 2 7 6 4 3 1 3 4 4
19 21 20 21 21 22 12 6 6 8 5 2 3 1 2 0 4 4 4 5 4 2 2 1 1 2 3 1 2 2 5 6 5 4 8 4 7 10 8 6 5 4 5 4
20 21 20 21 21 18 6 3 6 12 4 4 3 3 1 1 5 6 6 3 2 1 2 2 1 2 2 3 3 1 4 6 8 6 12 7 3 11 6 5 5 5 5 5
17 18 20 21 21 10 5 3 1 15 5 4 4 4 2 3 4 2 2 1 1 1 1 1 2 2 0 1 3 4 7 6 3 1 7 1 3 4 6 6 7 5 4 4
14 14 14 18 20 16 9 9 6 14 4 3 5 3 4 4 3 2 1 2 1 3 2 2 2 2 1 3 5 3 2 4 4 6 6 2 7 5 4 4 4 4 3 3
14 13 15 8 8 5 3 13 15 8 4 5 4 9 6 5 2 3 1 1 2 1 2 1 4 1 4 3 2 7 9 4 2 3 5 6 6 5 4 4 3 5 4 3
11 5 3 5 7 12 12 7 8 7 4 3 3 3 6 7 4 3 4 1 3 2 4 3 3 4 5 8 9 8 10 11 11 4 4 5 3 2 2 3 2 4 3 3
1 4 5 2 15 4 4 5 7 6 6 4 3 4 11 2 4 4 1 4 3 4 6 6 2 4 4 9 9 11 11 12 10 6 5 6 5 6 5 5 6 4 2 1
7 4 1 2 3 5 9 9 3 3 5 4 4 4 5 2 4 5 2 4 3 5 4 5 3 2 7 9 9 12 12 12 10 8 8 8 9 8 5 6 7 6 4 5
3 4 6 5 5 8 9 5 4 3 3 7 7 7 5 2 1 4 3 5 5 8 3 5 2 5 6 6 7 8 8 9 7 8 8 7 6 8 7 6 5 4 6 6
4 8 7 5 4 6 4 6 6 5 5 7 9 5 4 3 3 4 5 3 5 4 4 6 2 3 3 4 5 4 8 8 8 8 7 7 7 8 8 8 6 5 8 7
3 1 6 2 1 2 3 4 4 1 10 11 5 4 3 3 5 3 5 4 5 5 5 3 3 3 4 5 5 5 6 6 5 6 6 7 7 7 8 7 6 8 8 9
4 9 3 1 2 3 5 5 5 6 6 5 4 4 4 3 5 4 2 8 4 2 3 3 3 4 5 3 4 4 4 5 5 6 5 6 7 6 2 6 10 9 9 10
5 3 4 3 5 4 3 6 6 7 3 3 4 4 3 5 4 4 6 4 3 4 5 4 5 5 5 3 3 3 3 5 5 3 4 3 3 4 8 12 7 7 8 8
Wind_Direction
252 275 287 298 307 301 288 238 232 185 165 205 210 219 222 220 226 253 244 255 245 247 219 193 197 216 198 179 156 187 183 157 174 207 122 107 223 183 192 166 226 236 210 255
251 259 282 284 292 259 304 240 253 187 193 220 219 227 237 239 220 217 237 241 237 238 225 231 205 205 220 174 169 171 166 183 144 315 93 19 199 199 207 218 69 231 194 256
263 253 264 272 274 255 196 265 243 204 225 244 231 224 232 233 224 240 221 229 248 232 237 234 214 212 193 171 182 183 153 158 195 227 221 144 194 201 208 202 228 186 233 248
274 255 242 262 263 261 193 221 241 258 210 223 231 242 236 229 226 216 212 228 216 226 231 240 237 192 65 16 155 172 177 211 220 241 238 230 188 197 206 210 223 212 252 242
294 274 253 251 253 261 213 238 229 195 290 236 252 236 210 232 230 218 219 223 217 219 225 227 218 217 211 187 173 169 290 236 210 247 224 239 252 240 211 222 232 240 252 255
285 312 270 245 248 239 188 180 209 250 204 227 234 185 203 252 253 238 232 224 226 222 222 224 230 239 250 199 171 175 146 134 159 247 204 242 249 233 229 228 225 221 237 249
282 301 306 247 248 225 235 169 156 191 252 243 234 235 209 229 227 311 353 265 243 232 34 38 65 67 281 226 198 184 179 193 199 249 144 219 246 195 216 225 234 224 241 234
258 262 298 319 266 244 225 176 188 158 245 237 248 245 231 212 224 216 260 222 211 298 77 228 176 143 185 193 247 193 189 182 212 222 226 264 280 184 149 180 244 226 235 235
259 262 261 300 305 268 236 197 179 171 166 221 226 248 228 233 233 136 173 50 321 24 88 185 220 215 161 191 171 337 189 197 202 168 222 226 295 306 2 96 265 192 203 215
256 257 255 258 290 285 249 185 196 159 212 203 202 216 223 250 178 141 128 155 167 112 178 204 201 211 208 163 168 157 156 192 208 219 228 267 218 233 279 141 244 299 98 143
267 258 257 240 264 284 284 198 192 200 207 200 198 200 185 181 267 183 143 113 184 148 195 209 191 171 201 148 129 169 166 172 193 214 232 248 174 17 167 212 346 224 107 125
264 263 260 260 237 263 275 227 172 169 220 84 217 318 306 200 158 129 211 7 159 170 171 187 139 162 154 169 203 121 198 192 185 200 204 259 111 255 17 194 171 187 134 129
259 262 260 259 254 247 259 213 145 106 168 289 94 205 162 154 200 163 164 211 236 242 317 142 143 185 139 173 227 131 244 178 149 134 184 187 269 251 260 323 26 73 90 134
261 261 256 259 252 249 253 216 193 145 124 240 206 325 127 106 164 181 127 121 92 103 342 134 156 152 118 171 104 137 171 139 135 24 320 334 279 259 263 281 72 93 97 131
265 257 254 255 249 253 250 215 218 183 170 187 131 33 104 111 188 170 146 136 131 161 152 124 126 94 127 71 57 233 192 159 169 218 177 182 205 217 224 238 226 177 131 105
264 256 252 245 249 250 244 243 205 214 167 154 165 64 19 344 172 164 133 119 93 78 107 119 91 35 77 186 200 205 175 186 161 186 178 202 230 206 199 206 130 144 151 151
257 250 248 247 244 234 212 194 0 184 121 131 141 172 151 31 89 57 109 135 80 72 114 114 123 114 341 90 213 208 197 188 222 155 115 91 149 209 172 149 148 133 110 114
256 259 254 251 250 249 248 231 254 180 122 170 169 114 144 187 152 112 223 128 125 3 113 45 117 101 112 244 234 278 90 134 93 110 49 74 117 71 72 76 101 100 152 157
255 260 275 272 222 201 216 178 191 211 179 175 140 149 165 157 102 115 19 156 85 299 101 195 99 157 213 336 28 71 18 32 325 78 72 55 90 98 95 98 84 136 204 183
280 278 229 221 196 154 145 164 190 206 187 171 172 103 136 163 139 155 103 128 146 134 232 109 121 240 90 39 38 38 16 13 354 58 23 9 5 175 165 207 125 138 152 162
226 224 225 260 158 139 161 238 182 191 152 139 135 118 132 215 136 127 151 170 170 145 242 126 230 277 91 14 26 18 12 9 13 4 346 358 347 358 12 17 24 31 54 34
196 172 110 122 233 179 217 182 189 196 150 127 128 140 118 144 128 107 242 140 143 186 141 102 237 85 36 14 2 -0 5 359 356 2 3 6 28 11 5 33 30 22 24 22
130 182 218 136 195 228 198 154 119 151 211 148 156 133 128 96 105 87 135 127 181 127 98 211 114 78 41 6 358 347 1 358 356 2 8 21 43 39 38 39 15 38 49 16
213 183 213 185 169 234 201 154 155 132 125 133 129 107 117 125 95 137 131 93 128 166 144 229 79 48 338 8 9 6 347 353 0 2 4 23 39 46 35 29 16 47 49 23
272 186 160 143 51 39 301 314 68 78 149 130 108 81 84 95 109 79 120 154 166 183 197 78 52 30 20 19 6 1 357 353 5 2 13 24 35 45 45 20 27 51 58 58
48 11 99 317 104 40 15 11 75 10 112 81 70 108 106 102 120 148 115 150 161 93 71 59 55 48 41 2 354 348 338 358 15 23 29 41 43 45 37 45 45 46 59 63
37 12 5 8 64 46 45 342 355 327 216 89 106 98 91 103 97 75 21 55 67 89 79 70 49 45 34 350 15 360 18 36 27 12 22 29 28 41 52 55 18 41 52 68